Regional Weather Roundup
Issued by NWS

Home | Current Version | Previous Version | Text Only | Print | Product List | Glossary Off
Versions: 1 2 3 4 5 6 7 8 9 10 11 12 13 14 15 16 17 18 19 20 21 22 23 24 25 26 27 28 29 30 31 32 33 34 35 36 37 38 39 40 41 42 43 44 45 46 47 48 49 50

000
ASUS45 KBOU 011307
RWRCO

WEATHER ROUNDUP FOR COLORADO
NATIONAL WEATHER SERVICE DENVER/BOULDER CO
600 AM MST SUN MAR 01 2015

NOTE: "FAIR" INDICATES FEW OR NO CLOUDS BELOW 12000 FEET WITH NO
SIGNIFICANT WEATHER AND/OR OBSTRUCTIONS TO VISIBILITY.

COZ001>005-013-030-031-011400-
...NORTHWEST COLORADO...

CITY           SKY/WX    TMP DP  RH WIND       PRES   REMARKS
CRAIG          CLOUDY    20  16  84 W3        30.07R
HAYDEN         CLOUDY    19  16  86 CALM      30.05R
MEEKER         CLOUDY    24  20  84 N3        30.03R
MOUNT WERNER   NOT AVBL
STEAMBOAT SPGS CLOUDY    20  17  88 CALM      30.03S
WALDEN         MOCLDY     9   3  78 N5        30.00R WCI   0
$$

COZ006>008-011-011400-
...WEST CENTRAL VALLEYS...

CITY           SKY/WX    TMP DP  RH WIND       PRES   REMARKS
GRAND JUNCTION CLOUDY    30  29  96 SE10      30.03R WCI  21
MONTROSE       CLOUDY    27  25  92 SE8       30.06R WCI  19
EAGLE          MOCLDY    27  25  93 E8        30.03S WCI  18
RIFLE          CLOUDY    30  26  85 E3        30.03R
DELTA          CLOUDY    33  32  94 E5        30.05S WCI  29
NUCLA          CLOUDY    30  30 100 SE9       30.07R WCI  22
$$

COZ017>023-064>068-011400-
...SOUTHWEST COLORADO...

CITY           SKY/WX    TMP DP  RH WIND       PRES   REMARKS
DURANGO        LGT SNOW  30  30 100 E6        30.04S VSB 1   WCI  24
CORTEZ         MIX PCPN  32  32 100 N7        30.04R WCI  26
PAGOSA SPRINGS LGT SNOW  32  32 100 CALM      30.05S
TELLURIDE      LGT SNOW  25  24  95 CALM      30.04S
WOLF CREEK PAS   N/A     16  16 100 SW16G23   30.06R WCI   0
$$

COZ009-010-012-014-032>034-037-058>063-011400-
...CENTRAL COLORADO...

CITY           SKY/WX    TMP DP  RH WIND       PRES   REMARKS
ASPEN          FLURRIES  26  23  88 S5        30.01R WCI  20
BUENA VISTA    MOCLDY    17  14  88 NW5       30.00S WCI  10
COPPER MTN     LGT SNOW  18  12  79 W14G24    29.96R WCI   4
BERTHOUD PASS  LGT SNOW   9   3  78 W21G35    29.94R WCI -11
COTTONWOOD PAS MOCLDY    23  19  86 CALM      29.98R
GUNNISON       MOCLDY    16   7  67 CALM      30.06R
KREMMLING      LGT SNOW  23  21  93 CALM      30.02R
LEADVILLE      MOCLDY    15  11  83 NE7       29.97R WCI   5
SALIDA         MOCLDY    22  17  81 CALM      30.09R
SUNLIGHT       LGT SNOW  21  19  93 CALM        N/A
WILKERSON PASS PTCLDY    14  12  92 SW9       29.99R WCI   2
$$

COZ069>075-011400-
...SAN LUIS VALLEY/SANGRE DE CRISTO MOUNTAINS...

CITY           SKY/WX    TMP DP  RH WIND       PRES   REMARKS
ALAMOSA        CLOUDY    17  14  88 SW5       30.07R WCI  10
LA VETA PASS   FLURRIES  23  21  93 S13G24    30.01R WCI  11
SAGUACHE       CLOUDY    19  16  86 NW5       30.06R WCI  13
$$

COZ035-036-038>040-011400-
...NORTHERN COLORADO FRONT RANGE...

CITY           SKY/WX    TMP DP  RH WIND       PRES   REMARKS
DENVER INTL AP PTCLDY    11   6  81 SW8       30.11R HAZE    WCI  -1
DMNS CITY PARK   N/A     16  12  84 S3        30.12R
AURORA         MOCLDY    10   7  85 S6        30.10R WCI   1
FRONT RANGE AP NOT AVBL
ERIE MUNI ARPT PTCLDY    12  11  95 CALM      30.13S FOG
BOULDER MUN AP LGT SNOW  19  19 100 NE3       30.12R
CENTENNIAL     FLURRIES  13  10  88 SW6       30.09R WCI   4
BROOMFIELD     NOT AVBL
FORT COLLINS   CLEAR     16  12  86 CALM      30.15R
LONGMONT       MOCLDY    19  17  90 CALM      30.16R FOG
$$

COZ041-046-047-076>085-087-088-011400-
...PIKES PEAK/PALMER DIVIDE AND SOUTHERN FOOTHILLS...

CITY           SKY/WX    TMP DP  RH WIND       PRES   REMARKS
COLO. SPRINGS  PTCLDY    13  10  88 SW5       30.06R FOG     WCI   5
A. F. ACADEMY  PTCLDY    10   7  87 N9        30.02R WCI  -3
ELLICOTT       NOT AVBL
FALCON         PTCLDY    13  11  90 NW3G9     30.01R
FORT CARSON    PTCLDY    11   7  86 NW3       30.06R
LIMON          CLOUDY    11   8  88 NW12      30.09R WCI  -3
MONUMENT HILL  LGT SNOW  10   9  92 NW8       30.03R WCI  -1
TRINIDAD       CLOUDY    15  13  91 SW3       30.07R
$$

COZ042>045-048>051-090-091-011400-
...NORTHEAST COLORADO...

CITY           SKY/WX    TMP DP  RH WIND       PRES   REMARKS
GREELEY ARPT   PTCLDY    14   7  73 CALM      30.14R
AKRON          PTCLDY    12  10  92 NW6       30.13R WCI   3
BURLINGTON     MOCLDY    16  11  80 W7        30.14R WCI   6
WRAY           CLOUDY    18  15  90 N3        30.20R
STERLING       PTCLDY    14  12  92 CALM      30.17R
HOLYOKE        NOT AVBL
FORT MORGAN    PTCLDY    15  12  88 N8        30.16R WCI   4
$$

COZ086-089-092>099-011400-
...SOUTHEAST COLORADO...

CITY           SKY/WX    TMP DP  RH WIND       PRES   REMARKS
PUEBLO         PTCLDY    11   8  88 CALM      30.13R
LA JUNTA       MOCLDY    12   8  84 NW6       30.16R WCI   3
LAMAR          CLOUDY    20  18  92 NW3       30.16R FOG
SPRINGFIELD      N/A     13  10  88 NW5       30.12R WCI   5
$$


USA.gov is the U.S. government's official web portal to all federal, state and local government web resources and services.